Weather reports worldwide

Advertisment
Zwiesel, Germany (10796): temperature & dewpoint: 09.12.2019 19:00:00 - 15.12.2019 19:00:00 (CET)Zwiesel, Germany (10796): temperature 5cm & temperature -5cm: 09.12.2019 19:00:00 - 15.12.2019 19:00:00 (CET)Zwiesel, Germany (10796): temperature -20cm & temperature -100cm: 09.12.2019 19:00:00 - 15.12.2019 19:00:00 (CET)Zwiesel, Germany (10796): wind speed & gusts: 09.12.2019 19:00:00 - 15.12.2019 19:00:00 (CET)Zwiesel, Germany (10796): wind direction: 09.12.2019 19:00:00 - 15.12.2019 19:00:00 (CET)Zwiesel, Germany (10796): reduced air pressure: 09.12.2019 19:00:00 - 15.12.2019 19:00:00 (CET)Zwiesel, Germany (10796): visibility: 09.12.2019 19:00:00 - 15.12.2019 19:00:00 (CET)Zwiesel, Germany (10796): sunshine duration: 09.12.2019 19:00:00 - 15.12.2019 19:00:00 (CET)Zwiesel, Germany (10796): precipitation: 09.12.2019 19:00:00 - 15.12.2019 19:00:00 (CET)
Date & Time tt [°C] td [°C] tt 5cm [°C] tt -5cm [°C] tt -20cm [°C] tt -100cm [°C] ff [km/h] ff [kn] fx [km/h] fx [kn] dd ppp [hPa] vv [km] sd [min] rr [mm]
15.12.2019 19:00:00 6,5 5,3 5,2 0,2 1,2 5,5 8 5 27 15 SSW 1012,2 75 0 1,2
15.12.2019 18:00:00 7,1 5,6 5,2 0,2 1,2 5,5 14 7 29 16 W 1011,4 36 0 0,4
15.12.2019 17:00:00 3,9 3,7 2,9 0,2 1,2 5,5 2 1 6 4 N 1010,6 5 0 0,0
15.12.2019 16:00:00 4,6 4,4 2,3 0,2 1,2 5,5 3 1 8 4 N 1009,6 14 6 0,0
15.12.2019 15:00:00 4,5 4,0 3,1 0,2 1,2 5,5 4 2 8 4 NW 1009,4 2,9 8 0,0
15.12.2019 14:00:00 4,7 4,4 3,7 0,2 1,2 5,6 4 2 8 4 NNW 1008,8 13 0 0,0
15.12.2019 13:00:00 4,2 3,8 3,1 0,2 1,2 5,6 4 2 8 5 NNW 1008,9 3,9 0 0,0
15.12.2019 12:00:00 4,4 3,9 3,1 0,2 1,2 5,6 4 2 9 5 NNE 1009,1 22 0 0,0
15.12.2019 11:00:00 5,1 4,5 3,2 0,2 1,2 5,6 4 2 8 4 ESE 1008,6 71 0 0,0
15.12.2019 10:00:00 2,9 2,5 2,0 0,1 1,2 5,6 3 2 8 4 N 1009,0 0,7 8 0,0
15.12.2019 09:00:00 2,1 1,9 1,3 0,1 1,2 5,6 3 2 6 4 N 1008,5 1,1 0 0,3
15.12.2019 08:00:00 2,7 2,5 1,6 0,1 1,2 5,6 5 3 10 5 NNE 1007,8 12 0 0,5
15.12.2019 07:00:00 1,2 0,9 0,8 0,1 1,3 5,6 4 2 8 4 NW 1008,1 3,3 0 2,2
15.12.2019 06:00:00 1,2 0,8 0,7 0,2 1,3 5,6 2 1 9 5 SSE 1008,3 9 0 1,3
15.12.2019 05:00:00 1,1 0,4 0,6 0,2 1,3 5,6 0 0 5 3 N 1008,5 21 0 0,2
15.12.2019 04:00:00 0,6 -0,4 0,0 0,1 1,3 5,6 3 2 9 5 NNW 1009,4 43 0 0,0
15.12.2019 03:00:00 1,2 0,0 -0,2 0,1 1,3 5,6 4 2 14 7 ESE 1009,7 56 0 0,0
15.12.2019 02:00:00 2,3 0,0 0,5 0,1 1,3 5,6 11 6 20 11 ESE 1009,0 61 0 0,0
15.12.2019 01:00:00 4,6 0,0 1,5 0,1 1,3 5,6 6 4 25 13 W 1008,1 65 0 0,0
15.12.2019 00:00:00 4,9 -0,5 3,0 0,1 1,3 5,6 7 4 29 16 SW 1007,6 62 0 0,0
14.12.2019 23:00:00 4,9 -1,2 3,3 0,1 1,3 5,6 11 6 36 20 SW 1006,7 58 0 0,0
14.12.2019 22:00:00 4,8 -1,4 3,2 0,1 1,3 5,6 12 7 24 13 SW 1005,7 72 0 0,0
14.12.2019 21:00:00 4,5 -1,9 2,7 0,1 1,3 5,6 10 6 23 12 WSW 1005,1 58 0 0,0
14.12.2019 20:00:00 3,0 -0,5 1,6 0,1 1,3 5,6 7 4 12 6 SSE 1005,4 58 0 0,0
14.12.2019 19:00:00 3,3 0,1 1,3 0,1 1,3 5,6 5 3 16 9 WNW 1005,3 45 0 0,0
14.12.2019 18:00:00 3,4 0,1 1,8 0,1 1,3 5,6 13 7 37 20 W 1005,6 43 0 0,0
14.12.2019 17:00:00 3,3 -0,2 1,9 0,1 1,3 5,6 28 15 56 30 W 1004,1 55 0 0,0
14.12.2019 16:00:00 3,7 0,8 1,6 0,1 1,3 5,7 32 18 66 35 W 1002,1 69 0 1,6
14.12.2019 15:00:00 3,4 1,7 1,6 0,1 1,3 5,7 10 5 32 18 W 999,8 11 0 0,5
14.12.2019 14:00:00 4,1 1,1 2,1 0,1 1,3 5,7 13 7 35 19 WSW 998,4 49 0 0,0
14.12.2019 13:00:00 3,6 0,8 0,5 0,1 1,3 5,7 18 10 46 25 W 997,8 72 0 0,1
14.12.2019 12:00:00 1,9 0,9 0,1 0,1 1,3 5,7 9 5 22 12 SSW 996,2 21 0 1,3
14.12.2019 11:00:00 0,7 -0,1 0,1 0,1 1,3 5,7 4 2 15 8 S 995,5 6 0 1,3
14.12.2019 10:00:00 0,3 -0,3 0,1 0,1 1,4 5,7 6 4 13 7 S 995,1 1,6 0 2,1
14.12.2019 09:00:00 0,3 -0,6 0,0 0,1 1,4 5,7 8 4 26 14 SSW 994,5 3,0 0 0,8
14.12.2019 08:00:00 1,3 -1,8 0,6 0,1 1,4 5,7 14 8 33 18 SW 994,2 10 0 0,0
14.12.2019 07:00:00 1,0 -1,8 -0,2 0,1 1,4 5,7 8 4 15 8 S 994,3 62 0 0,0
14.12.2019 06:00:00 0,7 -0,6 -0,8 0,1 1,4 5,7 8 4 16 8 SE 994,7 48 0 0,0
14.12.2019 05:00:00 1,5 -0,3 0,8 0,1 1,4 5,7 5 3 26 14 S 995,4 58 0 0,1
14.12.2019 04:00:00 1,7 0,2 1,0 0,1 1,4 5,7 15 8 25 14 SW 995,4 47 0 0,0
14.12.2019 03:00:00 1,5 0,4 0,9 0,1 1,4 5,7 14 7 27 14 SW 994,9 17 0 0,8
14.12.2019 02:00:00 1,3 0,3 0,8 0,1 1,4 5,7 10 6 26 14 SW 994,4 7 0 0,4
14.12.2019 01:00:00 1,4 0,3 0,8 0,1 1,4 5,7 16 8 30 16 SW 993,8 9 0 0,3
14.12.2019 00:00:00 1,1 0,1 0,7 0,1 1,4 5,7 9 5 24 13 S 993,3 19 0 0,8
13.12.2019 23:00:00 1,4 0,3 0,8 0,1 1,4 5,7 15 8 30 16 SSW 992,2 11 0 0,4
13.12.2019 22:00:00 1,7 0,4 1,0 0,1 1,4 5,7 13 7 37 20 SSW 991,4 10 0 0,2
13.12.2019 21:00:00 2,2 0,0 1,1 0,1 1,4 5,7 16 9 34 18 SW 990,5 15 0 0,0
13.12.2019 20:00:00 2,3 -0,1 1,4 0,1 1,4 5,7 11 6 25 13 WSW 989,9 40 0 0,0
13.12.2019 19:00:00 1,8 0,0 1,1 0,1 1,4 5,7 8 4 26 14 SSW 989,4 29 0 0,0
13.12.2019 18:00:00 1,8 0,2 0,6 0,1 1,4 5,7 9 5 19 11 SSW 988,4 35 0 0,0
13.12.2019 17:00:00 1,2 0,0 0,0 0,1 1,4 5,7 5 3 12 6 S 987,3 21 0 0,0
13.12.2019 16:00:00 0,2 -0,7 0,0 0,1 1,4 5,7 4 2 10 6 ESE 986,9 35 0 0,1
13.12.2019 15:00:00 -0,1 -0,8 -0,1 0,1 1,4 5,8 2 1 8 4 WNW 986,3 4,4 0 1,1
13.12.2019 14:00:00 -0,1 -0,9 -0,1 0,1 1,4 5,8 3 2 21 12 SE 985,3 2,4 0 1,2
13.12.2019 13:00:00 0,9 -3,1 0,4 0,1 1,4 5,8 12 6 21 11 WSW 985,1 57 0 0,0
13.12.2019 12:00:00 0,2 -2,7 0,0 0,1 1,4 5,8 2 1 9 5 WNW 983,8 67 5 0,0
13.12.2019 11:00:00 -0,5 -4,0 -1,0 0,1 1,4 5,8 2 1 6 4 N 984,5 50 26 0,0
13.12.2019 10:00:00 -1,8 -3,4 -1,9 0,1 1,4 5,8 4 2 6 4 NNW 985,6 55 15 0,0
13.12.2019 09:00:00 -1,7 -3,2 -2,8 0,1 1,5 5,8 4 2 8 4 N 986,7 63 0 0,0
13.12.2019 08:00:00 -2,6 -3,8 -3,1 0,1 1,5 5,8 4 2 6 3 N 987,9 58 0 0,0
13.12.2019 07:00:00 -2,9 -3,8 -4,0 0,1 1,5 5,8 4 2 8 5 N 988,9 56 0 0,0
13.12.2019 06:00:00 -3,0 -3,8 -5,7 0,1 1,5 5,8 4 2 9 5 NW 990,3 38 0 0,0
13.12.2019 05:00:00 -2,8 -3,7 -6,3 0,1 1,5 5,8 3 2 9 5 NNW 991,3 40 0 0,0
13.12.2019 04:00:00 -1,5 -3,6 -6,3 0,1 1,5 5,8 3 2 29 15 S 992,9 56 0 0,0
13.12.2019 03:00:00 -0,4 -2,9 -1,3 0,1 1,5 5,8 12 7 23 12 SSE 994,2 60 0 0,0
13.12.2019 02:00:00 0,1 -2,4 -0,3 0,1 1,5 5,8 12 7 27 14 SSE 995,8 48 0 0,0
13.12.2019 01:00:00 0,1 -1,8 -0,3 0,1 1,5 5,8 16 9 26 14 SSE 997,4 44 0 0,0
13.12.2019 00:00:00 0,0 -1,0 -0,1 0,1 1,5 5,8 6 3 15 8 S 999,0 17 0 0,0
12.12.2019 23:00:00 0,1 -0,7 -0,1 0,1 1,5 5,8 9 5 14 8 SE 1000,4 12 0 0,0
12.12.2019 22:00:00 0,1 -0,9 -0,1 0,1 1,5 5,8 6 3 17 9 ESE 1001,6 16 0 0,0
12.12.2019 21:00:00 0,1 -0,9 -0,1 0,1 1,5 5,8 9 5 15 8 SE 1002,7 12 0 0,0
12.12.2019 20:00:00 -0,2 -0,7 -0,3 0,1 1,5 5,8 0 0 11 6 N 1003,6 2,2 0 0,1
12.12.2019 19:00:00 0,1 -0,7 -0,1 0,1 1,5 5,8 4 2 9 5 E 1004,2 18 0 0,1
12.12.2019 18:00:00 0,1 -0,4 0,0 0,1 1,5 5,8 3 2 4 2 E 1004,9 5 0 0,0
12.12.2019 17:00:00 0,1 -0,5 0,0 0,1 1,5 5,8 2 1 5 3 NNW 1005,5 8 0 0,0
12.12.2019 16:00:00 0,4 -0,4 0,1 0,1 1,5 5,8 3 2 5 3 WSW 1005,8 5 0 0,0
12.12.2019 15:00:00 0,5 -0,3 0,3 0,1 1,5 5,8 2 1 6 3 NW 1006,1 7 0 0,0
12.12.2019 14:00:00 0,9 -0,5 1,0 0,1 1,5 5,8 3 2 5 3 ESE 1006,5 13 0 0,0
12.12.2019 13:00:00 0,6 -0,7 0,7 0,1 1,5 5,8 3 2 6 4 WSW 1007,5 7 0 0,0
12.12.2019 12:00:00 0,1 -1,3 0,2 0,1 1,5 5,8 3 2 6 3 SSW 1008,1 7 0 0,0
12.12.2019 11:00:00 -0,1 -1,6 0,0 0,1 1,6 5,8 0 0 2 1 N 1008,5 3,5 0 0,0
12.12.2019 10:00:00 -0,9 -1,7 -0,3 0,1 1,6 5,8 0 0 7 4 N 1009,1 1,8 0 0,3
12.12.2019 09:00:00 -1,3 -2,0 -1,1 0,1 1,6 5,8 5 3 6 3 SE 1008,9 5 0 0,0
12.12.2019 08:00:00 -1,6 -2,1 -1,3 0,1 1,6 5,8 0 0 3 2 N 1008,9 4,0 0 0,0
12.12.2019 07:00:00 -1,6 -2,2 -1,4 0,1 1,6 5,8 0 0 3 1 N 1008,9 2,7 0 0,2
12.12.2019 06:00:00 -1,7 -2,4 -1,5 0,1 1,6 5,9 0 0 3 2 N 1008,6 1,6 0 0,2
12.12.2019 05:00:00 -1,6 -2,5 -1,4 0,1 1,6 5,9 0 0 2 1 N 1008,7 8 0 0,0
12.12.2019 04:00:00 -1,7 -2,8 -1,6 0,1 1,6 5,9 0 0 4 2 N 1008,7 11 0 0,0
12.12.2019 03:00:00 -1,8 -2,9 -1,6 0,1 1,6 5,9 4 2 5 3 NNE 1009,4 3,2 0 0,1
12.12.2019 02:00:00 -1,7 -3,2 -1,5 0,1 1,6 5,9 3 2 5 3 ESE 1009,8 20 0 0,0
12.12.2019 01:00:00 -1,9 -3,5 -1,8 0,1 1,6 5,9 2 1 4 2 N 1010,2 36 0 0,0
12.12.2019 00:00:00 -2,3 -3,7 -1,9 0,1 1,6 5,9 3 2 6 4 W 1011,0 31 0 0,0
11.12.2019 23:00:00 -2,8 -4,3 -2,6 0,1 1,7 5,9 2 1 11 6 N 1011,5 38 0 0,0
11.12.2019 22:00:00 -2,7 -4,3 -3,2 0,1 1,7 5,9 4 2 6 4 E 1011,8 38 0 0,0
11.12.2019 21:00:00 -2,6 -4,3 -3,4 0,1 1,7 5,9 4 2 10 5 N 1011,6 38 0 0,0
11.12.2019 20:00:00 -2,6 -4,4 -3,4 0,1 1,7 5,9 3 1 8 4 SW 1011,6 42 0 0,0
11.12.2019 19:00:00 -2,8 -4,5 -3,3 0,1 1,7 5,9 7 4 10 5 SE 1012,0 36 0 0,0
11.12.2019 18:00:00 -2,5 -4,5 -4,6 0,1 1,7 5,9 0 0 4 2 N 1012,4 31 0 0,0
11.12.2019 17:00:00 -1,5 -4,1 -4,3 0,1 1,7 5,9 3 1 4 2 W 1012,6 48 0 0,0
11.12.2019 16:00:00 0,2 -4,5 -2,3 0,1 1,7 5,9 4 2 8 4 WNW 1012,4 49 13 0,0
11.12.2019 15:00:00 3,0 -6,0 0,8 0,1 1,8 5,9 2 1 5 3 W 1012,4 49 60 0,0
11.12.2019 14:00:00 2,9 -5,0 2,7 0,0 1,8 5,9 2 1 7 4 W 1013,4 58 60 0,0
11.12.2019 13:00:00 3,0 -5,7 2,1 0,0 1,8 5,9 2 1 6 3 SW 1014,4 75 60 0,0
11.12.2019 12:00:00 0,3 -6,0 1,5 0,0 1,8 5,9 3 2 5 3 NW 1016,7 68 60 0,0
11.12.2019 11:00:00 -0,7 -5,6 -0,6 -0,1 1,9 5,9 0 0 3 2 N 1018,3 42 60 0,0
11.12.2019 10:00:00 -3,6 -5,9 -2,2 -0,2 1,9 5,9 0 0 4 2 N 1020,2 33 60 0,0
11.12.2019 09:00:00 -5,1 -6,3 -6,3 -0,1 1,9 5,9 2 1 5 3 NNW 1021,2 35 23 0,0
11.12.2019 08:00:00 -6,4 -7,5 -8,6 0,0 2,0 5,9 3 2 4 2 ESE 1022,1 34 0 0,0
11.12.2019 07:00:00 -6,2 -7,2 -9,0 0,1 2,0 5,9 3 1 4 2 S 1022,4 33 0 0,0
11.12.2019 06:00:00 -6,0 -7,0 -8,3 0,2 2,0 5,9 1 1 5 3 SW 1023,0 27 0 0,0
11.12.2019 05:00:00 -5,5 -6,3 -8,1 0,3 2,1 5,9 0 0 4 2 N 1023,5 14 0 0,0
11.12.2019 04:00:00 -5,2 -6,0 -7,8 0,3 2,1 5,9 1 0 3 2 W 1024,3 20 0 0,0
11.12.2019 03:00:00 -4,7 -5,5 -7,5 0,4 2,1 5,9 4 2 5 3 ESE 1025,5 22 0 0,0
11.12.2019 02:00:00 -4,7 -5,4 -6,3 0,4 2,1 5,9 0 0 5 3 N 1026,4 0,4 0 0,0
11.12.2019 01:00:00 -3,6 -4,2 -5,1 0,4 2,2 5,9 4 2 5 3 S 1027,2 0,5 0 0,0
11.12.2019 00:00:00 -3,0 -3,5 -3,6 0,5 2,2 5,9 0 0 5 3 N 1027,5 0,2 0 0,0
10.12.2019 23:00:00 -2,4 -2,8 -2,8 0,5 2,3 5,9 4 2 10 5 NNE 1027,8 0,7 0 0,0
10.12.2019 22:00:00 -2,4 -2,8 -5,3 0,5 2,3 5,9 3 2 5 3 N 1028,0 5 0 0,0
10.12.2019 21:00:00 -1,7 -2,2 -4,4 0,6 2,3 5,9 3 1 6 3 SW 1028,2 10 0 0,0
10.12.2019 20:00:00 -1,4 -2,2 -3,9 0,6 2,4 5,9 2 1 8 4 N 1028,4 17 0 0,0
10.12.2019 19:00:00 0,1 -1,4 -0,5 0,7 2,5 5,9 6 3 8 4 ESE 1028,3 28 0 0,0
10.12.2019 18:00:00 0,3 -1,5 -0,3 0,7 2,5 5,9 5 3 11 6 SSE 1028,3 24 0 0,0
10.12.2019 17:00:00 0,7 -1,6 0,0 0,9 2,5 5,9 5 3 10 5 SW 1028,2 32 0 0,2
10.12.2019 16:00:00 0,8 -1,4 0,4 1,2 2,5 5,9 8 5 15 8 W 1028,4 7 0 0,1
10.12.2019 15:00:00 1,1 -2,0 0,8 1,3 2,5 5,9 9 5 21 11 W 1028,0 41 0 0,5
10.12.2019 14:00:00 1,1 -1,4 1,0 2,4 2,5 5,9 14 8 23 12 W 1027,8 25 0 0,0
10.12.2019 13:00:00 1,4 -1,6 2,3 2,3 2,5 5,9 13 7 23 12 W 1027,5 41 0 0,0
10.12.2019 12:00:00 1,2 -1,9 1,5 1,8 2,5 6,0 10 5 27 15 WNW 1027,5 42 0 0,0
10.12.2019 11:00:00 0,8 -1,6 1,0 1,2 2,6 6,0 13 7 19 11 W 1027,3 38 0 0,0
10.12.2019 10:00:00 0,7 -1,6 0,6 0,8 2,7 6,0 9 5 18 10 W 1026,2 30 0 0,0
10.12.2019 09:00:00 0,8 -2,7 0,5 0,8 2,7 6,0 6 3 26 14 W 1025,4 40 0 0,0
10.12.2019 08:00:00 1,0 -3,3 0,2 0,9 2,8 6,0 3 2 29 16 NNE 1023,9 43 0 0,0
10.12.2019 07:00:00 1,3 -4,4 0,0 1,0 2,9 6,0 19 11 36 19 NNW 1022,4 44 0 0,0
10.12.2019 06:00:00 1,8 -1,8 1,0 1,5 2,9 6,0 13 7 35 19 NW 1020,9 38 0 0,0
10.12.2019 05:00:00 2,0 -1,2 1,3 1,9 2,9 6,0 18 10 32 17 NW 1019,4 52 0 0,0
10.12.2019 04:00:00 2,5 0,2 1,7 2,3 2,9 6,0 18 10 29 15 NNW 1017,6 68 0 0,7
10.12.2019 03:00:00 2,6 1,6 2,2 2,4 2,9 6,0 4 2 14 8 W 1016,3 41 0 0,1
10.12.2019 02:00:00 2,7 1,6 2,0 2,5 3,0 6,0 4 2 17 9 W 1015,1 39 0 0,1
10.12.2019 01:00:00 3,0 1,6 2,4 2,5 3,0 6,0 8 4 14 8 WNW 1013,9 67 0 0,1
10.12.2019 00:00:00 2,8 1,9 2,5 2,6 3,0 6,0 10 5 18 10 WSW 1012,8 12 0 0,0
09.12.2019 23:00:00 3,1 1,8 2,6 2,7 3,0 6,0 6 3 14 8 WSW 1011,4 25 0 0,4
09.12.2019 22:00:00 3,6 2,2 2,9 2,7 3,0 6,0 3 2 14 8 SW 1010,2 12 0 0,0
09.12.2019 21:00:00 4,0 2,0 3,2 2,7 3,0 6,0 7 4 13 7 SSW 1009,2 51 0 0,1
09.12.2019 20:00:00 3,6 1,6 2,9 2,6 3,0 6,0 7 4 10 5 E 1008,6 52 0 0,0
09.12.2019 19:00:00 3,9 1,3 2,4 2,6 3,0 6,1 3 2 26 14 WSW 1007,6 52 0 0,1

tt = temperature
td = dewpoint
tt 5cm = temperature 5cm
tt -5cm = temperature -5cm
tt -20cm = temperature -20cm
tt -100cm = temperature -100cm
ff = wind speed
fx = gusts
dd = wind direction
ppp = reduced air pressure
vv = visibility
sd = sunshine duration
rr = precipitation

Next stations